#timestamp,LO_Frequency,Hit,StdDev 
1687579215.9,286046998.4,N
1687579235.7,286047000.6,N
1687579255.5,286046999.9,N
1687579275.4,286046999.7,N
1687579295.2,286046999.7,N
1687579315.1,286047000.2,N
1687579316.0,286047000.2,N
1687579335.8,286046999.9,N
1687579355.6,286047000.4,N
1687579375.5,286047001.1,N
1687579395.3,286047000.5,N
1687579415.1,286047000.8,N
1687579435.9,286047000.8,N
1687579455.7,286047002.8,N
1687579475.6,286047002.4,N
1687579495.4,286047002.3,N
1687579515.2,286047002.6,N
1687579535.1,286047000.1,N
1687579536.0,286047000.1,N
1687579555.8,286047002.4,N
1687579575.7,286047002.4,N
1687579595.5,286047002.4,N
1687579615.3,286047002.7,N
1687579635.2,286046999.7,N
1687579655.9,286047001.0,N
1687579675.7,286047002.4,N
1687579695.6,286046999.8,N
1687579715.4,286047002.6,N
1687579735.3,286047002.3,N
1687579755.1,286047001.9,N
1687579756.0,286047001.9,N
1687579775.8,286047002.2,N
1687579795.7,286047002.2,N
1687579815.5,286047002.4,N
1687579835.3,286047002.2,N
1687579855.2,286047001.6,N
1687579875.0,286047002.0,N
1687579875.9,286047002.0,N
1687579895.8,286047002.8,N
1687579915.6,286046999.7,N
1687579935.4,286047002.7,N
1687579955.3,286046999.9,N
1687579975.1,286047002.4,N
1687579995.9,286047002.3,N
1687580015.7,286047002.3,N
1687580035.5,286046999.8,N
1687580055.4,286047000.2,N
1687580075.2,286047002.7,N
1687580095.0,286047001.6,N
1687580096.0,286047001.6,N
1687580115.8,286047002.7,N
1687580135.6,286047002.0,N
1687580155.5,286047002.1,N
1687580175.3,286047002.5,N
1687580195.1,286047001.5,N
1687580215.9,286047004.0,Y
1687580235.7,286046999.9,P
1687580255.6,286047000.6,N
1687580275.4,286047000.6,N
1687580295.2,286046998.1,N
1687580315.1,286047001.1,N
1687580316.0,286047001.1,N
1687580335.8,286047000.3,N
1687580355.6,286047002.3,N
1687580375.5,286047000.3,N
1687580395.3,286047001.1,N
1687580415.2,286047000.5,N
1687580435.9,286046999.8,N
1687580455.7,286046999.7,N
1687580475.6,286047002.8,N
1687580495.4,286046999.7,N
1687580515.2,286046999.7,N
1687580535.1,286046999.7,N
1687580536.0,286046999.7,N
1687580555.8,286046999.9,N
1687580575.7,286047000.8,N
1687580595.5,286047000.7,N
1687580615.3,286047000.5,N
1687580635.2,286047000.4,N
1687580655.9,286047000.9,N
1687580675.7,286047000.6,N
1687580695.6,286047000.0,N
1687580715.4,286047000.0,N
1687580735.3,286046999.7,N
1687580755.1,286047000.6,N
1687580756.0,286047000.6,N
1687580775.8,286047000.1,N
1687580795.7,286047002.8,Y
1687580815.5,286047000.0,P
1687580835.3,286046999.9,N
1687580855.2,286046999.7,N
1687580875.0,286047002.6,Y
1687580875.9,286047002.6,P
1687580895.8,286047002.5,N
1687580915.6,286047002.3,N
1687580935.4,286047002.8,N
1687580955.3,286047000.2,N
1687580975.1,286047000.5,N
1687580995.8,286047000.4,N
1687581015.7,286047000.5,N
1687581035.5,286046999.9,N
1687581055.4,286047000.3,N
1687581075.2,286046999.7,N
1687581095.0,286047002.4,N
1687581095.9,286047002.4,N
1687581115.8,286047002.6,N
1687581135.6,286046999.8,N
1687581155.5,286047000.3,N
1687581175.3,286047000.9,N
1687581195.1,286047000.5,N
1687581215.9,286047002.8,N
1687581235.7,286047002.6,N
1687581255.5,286047002.8,N
1687581275.4,286047002.8,N
1687581295.2,286047002.2,N
1687581315.1,286047002.7,N
1687581316.0,286047002.7,N
1687581335.8,286047002.4,N
1687581355.6,286047002.1,N
1687581375.5,286047002.6,N
1687581395.3,286047002.3,N
1687581415.2,286047002.6,N
1687581435.9,286046999.8,N
1687581455.7,286047002.7,N
1687581475.6,286046999.7,N
1687581495.4,286047002.7,N
1687581515.3,286047000.1,N
1687581535.1,286047002.7,N
1687581536.0,286047002.7,N
1687581555.8,286047002.4,N
1687581575.7,286047002.6,N
1687581595.5,286047000.2,N
1687581615.3,286046999.7,N
1687581635.2,286047002.7,N
1687581655.0,286047002.8,N
1687581655.9,286047002.8,N
1687581675.8,286047000.4,N
1687581695.6,286047000.1,N
1687581715.4,286047000.1,N
1687581735.3,286046998.3,N
1687581755.1,286046998.2,N
1687581775.9,286046998.3,N
1687581795.7,286046998.6,N
1687581815.5,286046998.5,N
1687581835.4,286046998.5,N
1687581855.2,286046998.1,N
1687581875.1,286046998.4,N
1687581876.0,286046998.4,N
1687581895.8,286046999.1,N
1687581915.6,286046999.1,N
1687581935.5,286046999.4,N
1687581955.3,286046999.2,N
1687581975.2,286046998.7,N
1687581995.9,286046998.8,N
1687582015.7,286046999.3,N
1687582035.6,286046996.9,N
1687582055.4,286046996.6,N
1687582075.2,286046999.4,N
1687582095.1,286046999.5,N
1687582096.0,286046999.5,N
1687582115.8,286046996.6,N
1687582135.7,286046999.4,N
1687582155.5,286046999.6,N
1687582175.3,286046996.8,N
1687582195.2,286046997.8,N
1687582215.0,286046999.5,N
1687582215.9,286046999.5,N
1687582235.8,286046999.2,N
1687582255.6,286046996.7,Y
1687582275.5,286046996.5,P
1687582295.3,286046998.7,N
1687582315.1,286046999.1,N
1687582335.9,286046999.3,N
1687582355.7,286046999.2,N
1687582375.6,286046996.9,Y
1687582395.4,286046999.2,P
1687582415.2,286046999.4,N
1687582435.1,286046999.1,N
1687582436.0,286046999.1,Y
1687582455.8,286046999.5,P
1687582475.6,286046997.0,P
1687582495.5,286046999.5,N
1687582515.3,286046998.8,N
1687582535.2,286046999.6,N
1687582555.9,286046996.6,Y
1687582575.7,286046999.1,P
1687582595.6,286046998.9,P
1687582615.4,286046996.7,P
1687582635.2,286046999.3,N
1687582655.1,286046998.5,N
1687582656.0,286046998.5,N
1687582675.8,286046998.3,N
1687582695.7,286046999.6,N
1687582715.5,286046999.0,N
1687582735.3,286046996.5,Y
1687582755.2,286046998.5,P
1687582775.0,286046998.3,P
1687582775.9,286046998.3,P
1687582795.8,286046998.5,Y
